KE5KZS Weather Reports


Display with metric or nautical units.
time (UTC)temp
F
wind
direction
speed
MPH
gust
MPH
rain 1hr
in
rain 24hr
in
rain mn
in
humidity
%
barometer
mb
20260831023036 92 135 1.0 3.0 0.00 0.00 0.00 45 1012.0
20260831022016 92 135 1.0 4.0 0.00 0.00 0.00 44 1011.8
20260831021016 92 135 2.0 4.0 0.00 0.00 0.00 43 1011.7
20260831020016 92 158 1.0 3.0 0.00 0.00 0.00 43 1011.4
20260831015016 93 158 1.0 3.0 0.00 0.00 0.00 42 1011.3
20260831014016 93 158 1.0 2.0 0.00 0.00 0.00 41 1011.3
20260831013016 94 158 1.0 3.0 0.00 0.00 0.00 41 1011.1
20260831012036 94 158 2.0 4.0 0.00 0.00 0.00 40 1010.9
20260831011016 95 113 2.0 6.0 0.00 0.00 0.00 40 1011.0
20260831010016 95 135 2.0 5.0 0.00 0.00 0.00 39 1010.9
20260831005016 96 135 2.0 5.0 0.00 0.00 0.00 38 1010.8
20260831004036 96 135 3.0 7.0 0.00 0.00 0.00 38 1010.8
20260831003036 97 158 3.0 10.0 0.00 0.00 0.00 37 1010.9
20260831002016 97 158 4.0 8.0 0.00 0.00 0.00 37 1010.9
20260831001016 98 135 4.0 9.0 0.00 0.00 0.00 36 1011.0
20260831000016 98 135 3.0 9.0 0.00 0.00 0.00 35 1011.1
20260830235016 98 158 3.0 8.0 0.00 0.00 0.00 34 1011.0
20260830234016 99 158 4.0 9.0 0.00 0.00 0.00 34 1010.9
20260830233016 99 158 4.0 11.0 0.00 0.00 0.00 34 1010.9
20260830232016 99 135 5.0 12.0 0.00 0.00 0.00 34 1011.0
20260830231056 100 135 3.0 8.0 0.00 0.00 0.00 34 1011.1
20260830230016 100 158 4.0 12.0 0.00 0.00 0.00 34 1011.1
20260830225016 100 158 5.0 11.0 0.00 0.00 0.00 33 1011.2
20260830224036 100 158 5.0 9.0 0.00 0.00 0.00 33 1011.2
20260830223016 101 158 3.0 7.0 0.00 0.00 0.00 33 1011.1
20260830222016 101 135 4.0 9.0 0.00 0.00 0.00 33 1011.2
20260830221016 102 158 5.0 15.0 0.00 0.00 0.00 32 1011.2
20260830220016 102 135 4.0 11.0 0.00 0.00 0.00 33 1011.3
20260830215016 102 158 4.0 11.0 0.00 0.00 0.00 32 1011.4
20260830214016 102 203 4.0 10.0 0.00 0.00 0.00 32 1011.4
20260830213016 102 113 3.0 7.0 0.00 0.00 0.00 32 1011.4
20260830212016 103 113 4.0 11.0 0.00 0.00 0.00 32 1011.5
20260830211016 104 113 4.0 10.0 0.00 0.00 0.00 32 1011.6
20260830210016 103 158 4.0 11.0 0.00 0.00 0.00 31 1011.9
20260830205016 103 113 4.0 8.0 0.00 0.00 0.00 32 1012.0
20260830204016 103 135 6.0 12.0 0.00 0.00 0.00 33 1012.1
20260830203016 104 158 5.0 12.0 0.00 0.00 0.00 32 1012.3
20260830202016 104 135 4.0 10.0 0.00 0.00 0.00 33 1012.5
20260830201016 104 203 5.0 11.0 0.00 0.00 0.00 34 1012.7
20260830200016 103 158 6.0 10.0 0.00 0.00 0.00 34 1012.9
20260830195036 103 113 5.0 11.0 0.00 0.00 0.00 34 1012.7
20260830194036 104 158 5.0 11.0 0.00 0.00 0.00 33 1012.9
20260830193016 104 180 5.0 14.0 0.00 0.00 0.00 34 1013.2
20260830192016 104 203 3.0 9.0 0.00 0.00 0.00 35 1013.1
20260830191016 103 203 5.0 10.0 0.00 0.00 0.00 34 1013.3
20260830190036 103 158 5.0 10.0 0.00 0.00 0.00 35 1013.3
20260830185016 103 180 5.0 9.0 0.00 0.00 0.00 35 1013.4
20260830184016 102 158 3.0 9.0 0.00 0.00 0.00 37 1013.5
20260830183016 101 180 7.0 15.0 0.00 0.00 0.00 37 1013.6
20260830182016 102 135 6.0 14.0 0.00 0.00 0.00 37 1013.8
20260830181016 102 158 6.0 13.0 0.00 0.00 0.00 38 1014.1
20260830180016 102 180 4.0 10.0 0.00 0.00 0.00 39 1014.2
20260830175016 102 135 3.0 6.0 0.00 0.00 0.00 40 1014.4
20260830174036 101 180 5.0 11.0 0.00 0.00 0.00 40 1014.6
20260830173016 101 180 4.0 10.0 0.00 0.00 0.00 41 1014.7
20260830172036 101 158 6.0 12.0 0.00 0.00 0.00 41 1014.9
20260830171016 101 203 5.0 10.0 0.00 0.00 0.00 42 1015.0
20260830170516 0 0.0 0.0 0.00 0.00 0.00
20260830165516 100 165 4.0 0.0 0.00 0.00 0.00 44
20260830164605 100 203 5.0 7.0 0.00 0.00 0.00 44 1015.2
20260830164016 100 225 4.0 10.0 0.00 0.00 0.00 45 1015.2
20260830163016 99 203 5.0 12.0 0.00 0.00 0.00 46 1015.4
20260830162016 99 180 5.0 10.0 0.00 0.00 0.00 46 1015.5
20260830161016 98 180 4.0 9.0 0.00 0.00 0.00 49 1015.5
20260830160036 97 180 4.0 11.0 0.00 0.00 0.00 50 1015.5
20260830155016 97 158 5.0 12.0 0.00 0.00 0.00 50 1015.5
20260830154016 96 158 5.0 13.0 0.00 0.00 0.00 50 1015.5
20260830153016 96 158 5.0 10.0 0.00 0.00 0.00 50 1015.3
20260830152016 96 225 3.0 9.0 0.00 0.00 0.00 51 1015.4
20260830151036 95 180 3.0 7.0 0.00 0.00 0.00 52 1015.3
20260830150016 94 203 4.0 9.0 0.00 0.00 0.00 53 1015.4
20260830145016 93 180 4.0 10.0 0.00 0.00 0.00 54 1015.4
20260830144016 92 203 4.0 10.0 0.00 0.00 0.00 56 1015.4
20260830143016 91 180 4.0 9.0 0.00 0.00 0.00 57 1015.4
20260830142016 91 203 4.0 9.0 0.00 0.00 0.00 57 1015.3
20260830141016 90 203 3.0 6.0 0.00 0.00 0.00 60 1015.2
20260830140036 89 225 3.0 7.0 0.00 0.00 0.00 61 1015.1
20260830135016 88 203 4.0 9.0 0.00 0.00 0.00 63 1015.2
20260830134016 87 158 3.0 6.0 0.00 0.00 0.00 65 1015.2
20260830133016 86 180 3.0 8.0 0.00 0.00 0.00 66 1015.1
20260830132016 85 180 3.0 6.0 0.00 0.00 0.00 68 1015.0
20260830131016 83 180 3.0 6.0 0.00 0.00 0.00 70 1014.9
20260830130016 82 180 2.0 6.0 0.00 0.00 0.00 71 1014.6
20260830125036 82 180 2.0 4.0 0.00 0.00 0.00 72 1014.6
20260830124016 81 180 2.0 5.0 0.00 0.00 0.00 72 1014.4
20260830123016 81 180 2.0 6.0 0.00 0.00 0.00 72 1014.3
20260830122016 81 158 2.0 5.0 0.00 0.00 0.00 73 1014.3
20260830121016 80 180 2.0 5.0 0.00 0.00 0.00 73 1014.2
20260830120016 80 180 1.0 4.0 0.00 0.00 0.00 73 1014.0
20260830115016 81 0.0 1.0 0.00 0.00 0.00 72 1014.1
20260830114016 81 135 1.0 3.0 0.00 0.00 0.00 71 1013.9
20260830113016 81 158 2.0 4.0 0.00 0.00 0.00 71 1013.9
20260830112016 81 158 1.0 3.0 0.00 0.00 0.00 70 1013.8
20260830111016 82 158 1.0 3.0 0.00 0.00 0.00 70 1013.7
20260830110016 82 180 1.0 4.0 0.00 0.00 0.00 70 1013.6
20260830105016 82 180 2.0 4.0 0.00 0.00 0.00 70 1013.5
20260830104016 81 203 3.0 5.0 0.00 0.00 0.00 70 1013.3
20260830103016 81 203 3.0 6.0 0.00 0.00 0.00 71 1013.3
20260830102016 80 158 1.0 4.0 0.00 0.00 0.00 71 1013.2
20260830101016 80 0.0 2.0 0.00 0.00 0.00 69 1013.2
20260830100016 81 0.0 1.0 0.00 0.00 0.00 68 1013.2
20260830095016 81 0.0 2.0 0.00 0.00 0.00 66 1013.2
20260830094016 82 0.0 2.0 0.00 0.00 0.00 65 1013.2
20260830093016 83 0.0 1.0 0.00 0.00 0.00 64 1013.2
20260830092016 83 158 1.0 6.0 0.00 0.00 0.00 63 1013.3
20260830091016 83 158 2.0 6.0 0.00 0.00 0.00 63 1013.2
20260830090016 83 158 2.0 6.0 0.00 0.00 0.00 63 1013.1
20260830085016 83 180 2.0 4.0 0.00 0.00 0.00 62 1013.1
20260830084016 84 180 1.0 4.0 0.00 0.00 0.00 61 1013.2
20260830083036 84 180 2.0 5.0 0.00 0.00 0.00 60 1013.2
20260830082016 84 180 2.0 5.0 0.00 0.00 0.00 60 1013.2
20260830081016 85 180 2.0 5.0 0.00 0.00 0.00 59 1013.2
20260830080016 85 180 2.0 4.0 0.00 0.00 0.00 59 1013.2
20260830075016 85 180 2.0 5.0 0.00 0.00 0.00 58 1013.2
20260830074036 85 158 2.0 5.0 0.00 0.00 0.00 58 1013.2
20260830073036 85 158 2.0 6.0 0.00 0.00 0.00 57 1013.3
20260830072016 85 203 2.0 4.0 0.00 0.00 0.00 57 1013.3
20260830071016 86 158 2.0 6.0 0.00 0.00 0.00 57 1013.3
20260830070016 86 158 2.0 6.0 0.00 0.00 0.00 56 1013.3
20260830065016 86 158 2.0 5.0 0.00 0.00 0.00 56 1013.4
20260830064016 86 158 3.0 6.0 0.00 0.00 0.00 55 1013.4
20260830063016 87 158 1.0 3.0 0.00 0.00 0.00 55 1013.4
20260830062016 87 158 3.0 5.0 0.00 0.00 0.00 54 1013.5
20260830061016 87 158 2.0 5.0 0.00 0.00 0.00 54 1013.5
20260830060016 87 180 2.0 6.0 0.00 0.00 0.00 53 1013.5
20260830055016 87 135 2.0 4.0 0.00 0.00 0.00 53 1013.5
20260830054056 88 135 2.0 3.0 0.00 0.00 0.00 52 1013.4
20260830053016 88 180 2.0 4.0 0.00 0.00 0.00 52 1013.5
20260830052036 88 158 2.0 5.0 0.00 0.00 0.00 51 1013.5
20260830051036 89 158 2.0 5.0 0.00 0.00 0.00 51 1013.4
20260830050016 89 180 2.0 5.0 0.00 0.00 0.00 50 1013.4
20260830045016 89 158 3.0 6.0 0.00 0.00 0.00 49 1013.4
20260830044016 89 158 3.0 7.0 0.00 0.00 0.00 50 1013.4
20260830043017 89 135 1.0 4.0 0.00 0.00 0.00 50 1013.4
20260830042016 89 158 2.0 5.0 0.00 0.00 0.00 50 1013.3
20260830041017 89 158 1.0 4.0 0.00 0.00 0.00 50 1013.4
20260830040016 90 158 2.0 3.0 0.00 0.00 0.00 49 1013.3
20260830035016 90 158 2.0 5.0 0.00 0.00 0.00 49 1013.2
20260830034016 90 180 2.0 5.0 0.00 0.00 0.00 49 1013.3
20260830033016 90 135 2.0 4.0 0.00 0.00 0.00 48 1013.3
20260830032016 90 135 1.0 3.0 0.00 0.00 0.00 47 1013.1
20260830031036 91 135 1.0 2.0 0.00 0.00 0.00 47 1013.0
20260830030016 91 135 1.0 3.0 0.00 0.00 0.00 46 1012.9
20260830025036 92 135 1.0 5.0 0.00 0.00 0.00 45 1012.8
20260830024016 92 158 2.0 6.0 0.00 0.00 0.00 45 1012.7